Location: Eschertshofen
(49.3064°N, 11.5756°E)
Time: 23:29:49
(UTC+00:00)

Cosmos 2266 Rocket - Pass Details

Date: 18 September 2020
Orbit: 934 x 1008 km, 82.9° (Epoch: 30 October)

Event Time Altitude Azimuth Distance (km) Brightness Sun altitude
Rises 20:58:02 0° 349° (N) 3,618 7.8 -32.1°
Reaches altitude 10° 21:00:32 10° 349° (NNW) 2,664 7.0 -32.4°
Enters shadow 21:05:33 62° 333° (NNW) 1,049 4.2 -32.9°
